{"data":{"norad_id":67300,"epoch":"2026-09-20T14:46:12.821088Z","epoch_age_seconds":93097,"freshness":"FRESH","line1":"1 67300U 25314A   26263.61542617  .00003610  00000+0  14521-3 0  9997","line2":"2 67300  97.3947 338.2156 0005672  67.4501 292.7337 15.25533370 40335","mean_motion":15.2553337,"eccentricity":0.0005672,"inclination_deg":97.3947,"raan_deg":338.2156,"arg_perigee_deg":67.4501,"mean_anomaly_deg":292.7337,"bstar":0.00014521,"rev_number":4033,"period_min":94.393215403738,"perigee_km":485.28914827853,"apogee_km":493.07943755322,"semimajor_km":6867.3212929159,"source":"CELESTRAK","updated_at":"2026-09-21T09:00:16.552204Z"}}